XE1MMG-6 Weather Reports


time (UTC)temp
F
wind
direction
speed
knots
gust
knots
rain 1hr
in
rain 24hr
in
rain mn
in
humidity
%
barometer
mb
20260504004843 93 0.0 0.0 0.00 0.00 0.00 30 812.0
20260504003829 91 0.0 0.0 0.00 0.00 0.00 31 812.0
20260504002815 90 0.0 0.0 0.00 0.00 0.00 32 811.6
20260504001801 88 0.0 0.0 0.00 0.00 0.00 33 811.8
20260504000747 92 0.0 0.0 0.00 0.00 0.00 30 811.5
20260503235733 91 0.0 0.0 0.00 0.00 0.00 30 811.5
20260503234719 90 0.0 0.0 0.00 0.00 0.00 30 811.6
20260503233704 93 0.0 0.0 0.00 0.00 0.00 28 811.4
20260503232650 95 0.0 0.0 0.00 0.00 0.00 29 811.0
20260503231636 93 0.0 0.0 0.00 0.00 0.00 28 810.8
20260503230622 92 0.0 0.0 0.00 0.00 0.00 29 810.4
20260503225607 93 0.0 0.0 0.00 0.00 0.00 28 810.5
20260503224553 93 0.0 0.0 0.00 0.00 0.00 28 810.7
20260503223539 91 0.0 0.0 0.00 0.00 0.00 28 810.6
20260503222524 91 0.0 0.0 0.00 0.00 0.00 28 810.6
20260503221510 93 0.0 0.0 0.00 0.00 0.00 27 810.5
20260503220456 93 0.0 0.0 0.00 0.00 0.00 27 810.7
20260503215442 92 0.0 0.0 0.00 0.00 0.00 27 810.8
20260503214428 95 0.0 0.0 0.00 0.00 0.00 27 810.7
20260503213413 95 0.0 0.0 0.00 0.00 0.00 27 810.8
20260503212359 95 0.0 0.0 0.00 0.00 0.00 27 811.1
20260503211345 92 0.0 0.0 0.00 0.00 0.00 28 811.0
20260503210331 94 0.0 0.0 0.00 0.00 0.00 28 811.3
20260503205316 94 0.0 0.0 0.00 0.00 0.00 28 811.5
20260503204302 94 0.0 0.0 0.00 0.00 0.00 28 811.7
20260503203248 94 0.0 0.0 0.00 0.00 0.00 28 811.9
20260503202234 93 0.0 0.0 0.00 0.00 0.00 28 812.0
20260503201219 93 0.0 0.0 0.00 0.00 0.00 28 812.1
20260503200205 93 0.0 0.0 0.00 0.00 0.00 28 812.3
20260503195151 93 0.0 0.0 0.00 0.00 0.00 28 812.5
20260503193122 93 0.0 0.0 0.00 0.00 0.00 29 812.8
20260503192108 93 0.0 0.0 0.00 0.00 0.00 29 812.9
20260503191054 92 0.0 0.0 0.00 0.00 0.00 29 813.1
20260503190040 92 0.0 0.0 0.00 0.00 0.00 29 813.1
20260503185026 92 0.0 0.0 0.00 0.00 0.00 29 813.3
20260503184012 92 0.0 0.0 0.00 0.00 0.00 30 813.6
20260503182957 91 0.0 0.0 0.00 0.00 0.00 30 813.7
20260503181943 91 0.0 0.0 0.00 0.00 0.00 31 813.9
20260503180929 90 0.0 0.0 0.00 0.00 0.00 31 814.1
20260503175915 89 0.0 0.0 0.00 0.00 0.00 31 814.2
20260503174900 88 0.0 0.0 0.00 0.00 0.00 33 814.4
20260503173843 88 0.0 0.0 0.00 0.00 0.00 33 814.5
20260503172829 88 0.0 0.0 0.00 0.00 0.00 33 814.5
20260503171815 88 0.0 0.0 0.00 0.00 0.00 33 814.7
20260503170801 88 0.0 0.0 0.00 0.00 0.00 34 814.7
20260503150510 86 0.0 0.0 0.00 0.00 0.00 35 815.3
20260503131234 87 0.0 0.0 0.00 0.00 0.00 35 813.9
20260503130220 86 0.0 0.0 0.00 0.00 0.00 35 813.9
20260503081542 86 0.0 0.0 0.00 0.00 0.00 34 813.5
20260503080527 87 0.0 0.0 0.00 0.00 0.00 34 813.4
20260503072431 88 0.0 0.0 0.00 0.00 0.00 32 813.5
20260503071417 88 0.0 0.0 0.00 0.00 0.00 32 813.5
20260503070402 88 0.0 0.0 0.00 0.00 0.00 31 813.6
20260503060237 89 0.0 0.0 0.00 0.00 0.00 31 813.6
20260503054209 89 0.0 0.0 0.00 0.00 0.00 31 813.5
20260503053155 89 0.0 0.0 0.00 0.00 0.00 31 813.3
20260503052140 92 0.0 0.0 0.00 0.00 0.00 29 813.3
20260503051126 89 0.0 0.0 0.00 0.00 0.00 31 813.2
20260503050111 91 0.0 0.0 0.00 0.00 0.00 30 813.3
20260503045057 91 0.0 0.0 0.00 0.00 0.00 30 813.2
20260503044043 91 0.0 0.0 0.00 0.00 0.00 30 813.3
20260503043029 90 0.0 0.0 0.00 0.00 0.00 31 813.1
20260503042014 89 0.0 0.0 0.00 0.00 0.00 31 813.3
20260503041000 89 0.0 0.0 0.00 0.00 0.00 32 813.3
20260503035946 91 0.0 0.0 0.00 0.00 0.00 30 813.2
20260503034932 91 0.0 0.0 0.00 0.00 0.00 30 813.0
20260503033918 89 0.0 0.0 0.00 0.00 0.00 31 812.7
20260503032903 90 0.0 0.0 0.00 0.00 0.00 31 812.4
20260503031849 90 0.0 0.0 0.00 0.00 0.00 31 812.3
20260503030835 90 0.0 0.0 0.00 0.00 0.00 31 812.2
20260503025820 90 0.0 0.0 0.00 0.00 0.00 31 812.1
20260503024806 90 0.0 0.0 0.00 0.00 0.00 31 811.8
20260503023752 90 0.0 0.0 0.00 0.00 0.00 31 811.5
20260503022738 91 0.0 0.0 0.00 0.00 0.00 30 811.3
20260503021723 93 0.0 0.0 0.00 0.00 0.00 29 811.1
20260503020709 92 0.0 0.0 0.00 0.00 0.00 29 811.1
20260503015655 92 0.0 0.0 0.00 0.00 0.00 29 810.9
20260503014641 91 0.0 0.0 0.00 0.00 0.00 30 810.8
20260503013627 92 0.0 0.0 0.00 0.00 0.00 29 810.7
20260503012612 92 0.0 0.0 0.00 0.00 0.00 29 810.6
20260503011558 89 0.0 0.0 0.00 0.00 0.00 30 810.6
20260503010544 92 0.0 0.0 0.00 0.00 0.00 28 810.3
20260503005529 93 0.0 0.0 0.00 0.00 0.00 25 810.2